Temp
98 94 94 94 93 93 92 91 91 91 92 91 91 92 92 91 89 88 87 85 84 84 85 85 85 85 85 85 85 85 86 85 85 85 85 85 86 86 86 87 86 86 87 87 86 86 87 88 88 88 87 87 87 87 86 86 86 87 86 86 86 84 84
97 94 94 95 94 92 91 91 91 93 93 93 91 91 93 91 89 89 87 86 85 85 85 85 85 85 85 85 85 85 85 85 86 85 86 85 85 86 87 87 86 86 86 87 87 87 88 89 89 88 88 87 87 87 88 87 86 86 86 86 85 84 84
96 98 91 93 92 92 90 91 91 94 94 95 93 93 92 89 90 88 87 86 85 85 86 85 85 85 85 85 85 85 85 86 86 86 86 87 87 89 88 87 88 88 88 88 88 89 90 89 88 88 88 87 88 87 87 87 86 86 86 85 85 85 84
94 97 95 94 93 91 92 92 91 93 96 96 94 94 92 89 91 90 89 87 86 85 84 85 86 86 86 85 85 85 85 85 86 87 88 88 87 88 87 87 87 89 88 88 90 91 91 89 89 88 88 87 87 88 88 87 88 86 86 85 85 85 84
96 99 99 96 96 95 95 95 95 94 96 97 95 92 93 93 93 92 91 89 89 86 87 87 88 87 86 87 87 86 86 86 86 87 88 88 88 88 87 89 89 89 89 90 89 88 87 88 89 88 88 87 88 87 87 87 87 86 86 86 84 85 84
96 96 97 96 96 96 97 98 98 97 97 97 96 94 95 96 95 94 92 90 89 89 88 87 87 87 86 87 87 87 86 86 86 86 87 87 87 88 88 88 90 89 90 89 90 90 89 89 90 89 89 90 90 89 89 88 88 87 86 85 84 85 85
94 96 97 98 99 99 98 98 98 98 98 98 98 97 96 97 95 95 94 92 91 88 88 88 89 88 87 87 87 86 86 87 86 87 88 89 88 88 88 88 88 90 90 89 89 90 90 89 89 89 89 90 88 89 87 86 86 86 85 84 84 84 84
96 96 97 99 100 102 101 98 99 99 98 98 98 97 96 97 96 95 94 93 92 92 90 90 89 88 87 87 88 87 87 87 88 88 88 89 89 88 89 89 88 89 89 90 89 90 91 89 90 89 89 90 88 87 88 87 86 88 86 84 84 84 86
98 97 98 101 100 101 100 97 98 99 96 96 96 96 96 96 96 95 95 94 93 92 91 92 91 90 88 88 87 87 88 88 88 88 88 89 89 90 91 91 90 90 89 90 91 90 90 90 90 88 88 88 88 87 87 86 87 87 86 85 84 84 85
96 95 96 100 102 102 99 99 98 95 94 94 94 93 95 95 95 95 96 95 95 93 93 93 93 92 89 89 89 89 88 87 88 89 89 89 90 90 91 92 91 90 90 91 92 91 89 90 90 89 87 88 87 87 87 87 87 87 87 85 85 84 84
97 94 95 99 99 97 97 99 95 92 93 91 92 96 94 94 95 96 95 96 96 95 95 94 93 93 91 90 90 90 88 88 89 89 89 90 91 91 92 93 93 92 91 92 92 92 91 89 90 88 87 88 87 87 87 87 87 86 87 87 86 86 85
93 94 92 95 95 95 96 93 92 91 91 91 94 96 93 92 95 96 96 96 97 96 95 95 95 94 92 91 90 88 87 88 89 90 90 90 92 92 93 94 93 93 92 92 92 92 93 90 90 89 88 87 88 88 87 87 87 86 87 88 88 86 86
94 93 94 97 95 95 92 90 91 91 91 94 97 97 96 96 95 96 94 95 97 97 96 94 94 93 92 92 91 88 87 89 89 90 91 90 91 93 93 94 95 95 93 93 93 92 93 93 90 89 89 88 88 88 88 87 87 86 86 87 87 86 85
94 97 96 95 96 94 92 91 91 91 91 94 96 96 97 97 97 95 94 95 96 98 98 98 95 93 92 91 90 88 88 88 89 91 90 90 89 90 92 94 93 93 92 92 92 93 93 94 92 91 90 89 89 88 88 87 87 87 86 86 87 87 86
97 97 95 96 92 92 93 92 91 91 93 93 96 95 96 97 96 95 94 96 95 99 98 96 94 93 93 91 89 88 88 88 89 89 89 90 89 89 90 91 91 91 91 91 92 93 94 94 94 91 89 90 89 88 89 88 87 88 87 86 86 87 87
99 98 97 95 94 94 92 93 92 91 92 92 94 93 97 95 94 95 96 96 97 95 97 95 93 91 92 91 89 88 89 88 88 88 88 88 88 87 89 90 90 91 91 91 92 91 91 91 91 94 91 89 89 88 88 88 88 82 75 78 86 86 87
98 97 97 96 91 94 92 92 92 92 91 91 92 93 93 94 94 96 99 97 98 95 97 98 92 91 90 90 89 89 89 88 87 88 87 87 88 88 88 88 89 89 89 89 90 90 89 90 91 93 94 91 90 89 88 89 88 74 70 72 75 84 86
99 95 96 96 95 94 92 93 92 91 92 94 95 93 94 92 95 96 97 96 96 99 100 98 95 92 90 91 90 89 88 88 88 87 87 87 87 87 88 88 88 88 88 89 90 89 91 90 90 90 92 92 91 90 89 89 78 69 68 69 70 75 86
97 99 97 93 93 92 95 96 94 92 94 95 95 95 97 95 97 93 94 93 94 96 97 95 96 92 90 91 90 89 89 88 88 87 87 87 87 88 88 87 87 87 88 89 89 90 88 88 90 89 90 91 89 90 90 90 76 67 67 68 68 69 79
98 99 101 102 99 97 96 95 95 95 95 93 95 100 97 95 96 95 95 94 93 93 92 91 92 91 90 90 90 89 89 88 88 87 87 87 87 87 87 87 87 87 89 89 89 88 89 90 89 89 88 89 89 89 91 90 76 66 65 66 66 67 73
95 96 96 95 94 99 93 92 94 94 94 99 101 98 96 96 97 96 95 93 93 92 91 91 91 91 90 90 90 90 89 89 88 87 87 87 87 87 87 87 87 87 88 90 90 89 87 89 89 88 89 90 91 90 91 93 73 64 63 63 64 66 68
98 100 99 98 96 91 91 94 94 97 94 96 100 102 100 98 99 99 95 94 93 92 91 91 90 90 90 89 89 89 89 89 88 87 87 87 87 87 87 87 86 86 87 89 91 91 90 89 90 90 89 90 91 91 90 94 72 63 62 62 63 64 73
100 100 100 99 97 92 91 93 93 94 93 95 96 98 98 101 100 97 96 94 94 91 90 90 89 89 89 89 90 90 90 90 89 87 87 87 87 87 87 86 86 87 88 88 89 90 90 89 91 89 90 90 89 88 89 91 77 61 60 61 61 64 76
95 95 96 95 94 93 91 90 92 93 93 93 93 94 93 96 97 94 92 91 91 90 90 90 90 90 90 90 90 91 91 90 89 88 87 87 87 87 87 89 89 89 88 88 89 90 91 91 90 90 90 91 90 91 90 90 79 58 59 59 59 66 77
94 94 94 91 90 90 90 89 89 90 90 89 90 91 93 93 92 94 93 91 91 92 92 91 90 91 91 91 91 91 91 91 90 89 88 87 87 88 88 88 88 89 88 90 89 90 90 90 90 90 90 93 92 81 87 91 82 58 59 57 58 65 78
89 91 91 91 90 90 89 89 89 89 90 92 89 92 93 93 92 91 92 92 94 93 91 90 91 91 92 93 92 92 91 91 89 88 89 88 88 88 88 88 89 89 89 89 90 89 90 91 90 90 90 92 92 93 91 90 90 72 56 56 56 59 77
89 90 90 90 88 86 89 90 88 87 88 88 88 90 91 92 91 90 90 91 91 90 92 92 92 91 91 91 93 92 91 92 90 90 91 90 89 89 89 90 89 89 89 89 90 89 88 89 90 90 89 92 92 92 92 92 91 79 56 56 56 57 64
89 88 91 89 89 88 88 89 86 87 89 90 91 90 91 90 89 89 90 90 90 92 94 93 91 91 91 90 91 92 92 92 91 91 91 90 89 88 87 89 89 89 89 90 88 86 86 87 86 88 89 90 91 90 90 89 80 90 59 57 54 56 57
85 85 86 87 88 88 89 86 85 87 88 92 92 93 93 92 89 89 89 89 91 93 93 93 92 91 90 90 90 90 91 90 90 90 92 90 89 88 87 88 88 88 87 86 87 86 86 86 86 86 86 87 87 88 88 88 85 75 73 56 55 54 55
85 85 86 89 89 86 87 86 86 87 87 89 89 89 91 91 89 89 89 90 93 93 93 93 92 91 90 89 89 90 91 91 92 91 90 89 88 88 87 87 87 87 86 86 86 86 85 85 85 86 86 86 85 86 87 88 90 76 65 63 53 54 54
84 84 85 86 87 86 86 87 84 85 85 86 86 87 88 91 89 89 86 86 90 92 91 91 91 90 89 90 90 89 91 90 90 90 90 90 89 87 87 87 87 86 86 86 86 85 85 84 86 84 84 84 84 86 87 88 87 89 69 59 55 54 54
84 83 85 85 83 82 84 86 86 85 85 86 87 88 87 87 89 87 84 89 89 90 91 91 90 89 89 89 89 90 91 91 92 90 90 90 90 89 88 88 87 86 86 86 86 86 85 84 85 85 85 83 85 84 86 87 87 88 83 65 60 56 54
82 82 81 81 81 82 81 82 84 82 81 80 82 83 85 87 88 86 86 87 89 91 90 90 89 87 88 88 89 89 89 89 91 91 91 90 91 91 89 88 88 87 85 85 87 86 85 85 84 85 85 84 85 86 85 85 86 86 80 76 74 72 68
79 80 81 82 81 81 81 81 82 81 81 80 82 83 83 83 83 84 85 88 89 90 89 87 87 87 88 88 88 87 88 89 90 89 90 90 91 92 91 90 90 89 86 87 87 86 86 85 84 84 85 86 86 85 86 85 81 72 72 74 74 76 77
79 79 80 79 80 80 78 79 81 81 80 80 81 82 82 83 83 85 85 85 87 87 87 86 86 87 88 89 88 87 87 88 88 88 89 83 76 73 71 76 87 81 77 75 76 82 85 87 85 83 86 83 79 80 81 82 77 72 59 63 58 63 68
79 80 80 81 80 80 80 80 80 79 79 79 81 82 82 82 84 85 86 85 86 86 84 83 83 83 83 84 85 86 86 86 87 86 84 82 81 77 75 64 55 69 78 71 62 57 59 63 75 79 84 81 77 78 79 78 75 55 48 48 48 49 51
77 78 78 80 79 78 79 79 79 79 79 79 80 80 81 82 83 83 84 84 84 84 83 83 82 82 81 81 81 80 83 83 83 84 83 81 79 79 75 75 70 50 52 60 60 55 49 48 51 56 61 73 76 70 58 60 55 51 50 47 47 46 47
78 79 79 79 78 78 77 78 79 78 78 79 80 80 81 81 82 82 84 84 84 84 82 82 81 80 81 82 81 81 82 83 83 82 82 82 80 79 77 76 73 72 55 49 52 52 49 49 49 50 52 57 63 71 72 63 58 49 47 48 47 47 46
MSLP
998.74 999.97 1000.04 1000.21 1000.80 1001.30 1001.86 1002.42 1002.89 1003.16 1003.22 1003.51 1003.92 1004.24 1004.68 1004.98 1005.15 1005.41 1005.86 1006.21 1006.60 1007.03 1007.18 1007.42 1007.78 1008.15 1008.59 1008.91 1009.16 1009.42 1009.66 1010.04 1010.33 1010.74 1011.03 1011.21 1011.27 1011.47 1011.72 1011.84 1012.18 1012.36 1012.41 1012.74 1012.83 1012.91 1012.89 1012.89 1013.16 1013.36 1013.54 1013.80 1014.10 1014.27 1014.41 1014.59 1014.86 1015.03 1015.21 1015.30 1015.57 1015.92 1016.18
998.78 999.41 999.91 999.78 1000.28 1000.77 1001.18 1001.62 1002.28 1002.71 1002.74 1003.03 1003.59 1003.98 1004.18 1004.54 1004.68 1005.01 1005.27 1005.54 1005.95 1006.30 1006.54 1006.80 1007.24 1007.60 1007.95 1008.30 1008.54 1008.89 1009.33 1009.57 1009.83 1010.12 1010.47 1010.83 1010.91 1011.01 1011.04 1011.33 1011.65 1011.92 1012.01 1012.07 1012.22 1012.34 1012.48 1012.60 1012.74 1013.04 1013.33 1013.53 1013.80 1013.91 1014.10 1014.30 1014.54 1014.80 1015.07 1015.24 1015.54 1015.80 1016.01
998.41 998.22 999.65 999.66 999.97 1000.28 1000.72 1000.92 1001.39 1001.66 1001.92 1002.36 1003.01 1003.51 1003.65 1003.74 1003.74 1004.07 1004.62 1005.18 1005.72 1005.98 1006.16 1006.41 1006.60 1006.89 1007.24 1007.65 1008.18 1008.51 1008.72 1009.07 1009.45 1009.77 1010.10 1010.33 1010.53 1010.59 1010.62 1010.80 1011.09 1011.41 1011.51 1011.59 1011.72 1011.98 1012.03 1012.33 1012.42 1012.62 1012.89 1013.27 1013.51 1013.74 1013.86 1014.10 1014.30 1014.53 1014.74 1014.98 1015.34 1015.65 1015.86
997.84 997.80 998.36 998.66 998.92 999.48 999.98 1000.47 1001.09 1001.33 1001.30 1001.71 1002.16 1002.36 1002.68 1003.12 1003.24 1003.62 1004.03 1004.51 1005.16 1005.60 1006.01 1006.04 1006.24 1006.60 1006.84 1007.27 1007.68 1007.98 1008.30 1008.54 1008.74 1009.01 1009.27 1009.54 1009.95 1010.10 1010.42 1010.57 1010.74 1010.89 1011.27 1011.39 1011.33 1011.45 1011.57 1011.84 1012.21 1012.41 1012.54 1012.91 1013.18 1013.39 1013.62 1013.86 1014.07 1014.33 1014.53 1014.77 1015.10 1015.30 1015.51
997.10 996.80 997.04 997.84 998.22 998.83 999.39 999.77 1000.21 1000.48 1000.72 1000.83 1001.27 1001.72 1002.01 1002.48 1002.98 1003.41 1003.84 1004.22 1004.57 1004.98 1005.04 1005.33 1005.54 1005.84 1006.16 1006.51 1006.95 1007.33 1007.65 1007.95 1008.21 1008.41 1008.68 1008.95 1009.24 1009.62 1010.03 1010.22 1010.36 1010.57 1010.65 1010.83 1011.01 1011.22 1011.39 1011.60 1011.86 1012.15 1012.39 1012.54 1012.89 1013.12 1013.41 1013.57 1013.83 1014.04 1014.33 1014.53 1014.98 1015.07 1015.34
996.95 996.97 996.92 997.51 997.74 998.22 998.47 998.71 999.12 999.60 1000.09 1000.59 1000.98 1001.53 1001.78 1002.07 1002.36 1002.89 1003.22 1003.77 1004.18 1004.41 1004.74 1005.12 1005.41 1005.68 1006.18 1006.27 1006.51 1006.74 1007.04 1007.39 1007.62 1007.86 1008.24 1008.53 1008.86 1009.24 1009.51 1009.62 1009.83 1010.09 1010.39 1010.53 1010.57 1010.83 1011.01 1011.24 1011.47 1011.74 1012.12 1012.28 1012.53 1012.83 1013.04 1013.34 1013.51 1013.72 1014.04 1014.27 1014.62 1014.80 1015.09
996.60 996.51 996.53 996.60 996.83 997.33 997.72 998.04 998.47 998.97 999.28 999.65 1000.10 1000.72 1001.21 1001.51 1001.84 1002.07 1002.53 1003.15 1003.51 1004.10 1004.39 1004.68 1004.83 1005.07 1005.39 1005.65 1006.01 1006.33 1006.80 1007.10 1007.36 1007.68 1007.86 1008.21 1008.39 1008.77 1008.97 1009.16 1009.39 1009.60 1009.78 1010.01 1010.36 1010.41 1010.78 1010.98 1011.09 1011.28 1011.62 1011.95 1012.22 1012.42 1012.74 1013.03 1013.24 1013.36 1013.72 1014.04 1014.33 1014.45 1014.62
995.59 996.21 996.03 995.89 996.09 996.47 996.89 997.34 997.80 998.30 998.92 999.33 999.86 1000.39 1000.83 1000.83 1001.24 1001.74 1002.04 1002.27 1002.77 1003.27 1003.72 1004.09 1004.42 1004.51 1004.74 1005.01 1005.30 1005.74 1006.12 1006.48 1006.71 1007.04 1007.41 1007.80 1008.01 1008.33 1008.48 1008.74 1009.03 1009.10 1009.39 1009.80 1009.83 1009.92 1010.28 1010.57 1010.68 1010.89 1011.16 1011.53 1011.84 1012.07 1012.27 1012.54 1012.83 1012.97 1013.28 1013.77 1014.04 1014.21 1014.15
994.74 995.03 995.53 995.42 995.80 996.10 996.54 997.12 997.45 997.91 998.66 999.12 999.33 999.66 1000.16 1000.57 1000.78 1001.03 1001.33 1001.74 1002.10 1002.54 1002.97 1003.12 1003.54 1003.86 1004.28 1004.62 1004.98 1005.28 1005.53 1005.89 1006.30 1006.59 1007.03 1007.41 1007.54 1007.86 1008.01 1008.22 1008.47 1008.59 1009.07 1009.28 1009.45 1009.53 1009.74 1010.04 1010.28 1010.54 1010.77 1011.09 1011.36 1011.66 1011.89 1012.09 1012.36 1012.51 1012.80 1013.21 1013.54 1013.80 1013.84
994.27 995.10 995.15 995.03 994.68 995.22 995.98 996.47 996.92 997.59 998.51 999.09 999.33 999.59 999.80 999.84 1000.09 1000.53 1000.89 1001.04 1001.33 1001.80 1002.09 1002.45 1002.78 1003.21 1003.78 1004.30 1004.62 1004.77 1005.12 1005.54 1005.83 1006.21 1006.54 1006.98 1007.07 1007.39 1007.48 1007.65 1007.92 1008.15 1008.57 1008.77 1008.91 1009.27 1009.36 1009.48 1009.78 1010.15 1010.47 1010.72 1010.98 1011.22 1011.47 1011.65 1011.84 1012.07 1012.24 1012.62 1012.97 1013.30 1013.48
993.66 994.51 994.95 995.07 995.03 995.42 995.71 996.15 996.84 997.45 997.86 998.42 998.74 998.83 999.15 999.53 999.77 999.95 1000.15 1000.34 1000.71 1001.07 1001.41 1001.80 1001.98 1002.51 1003.10 1003.72 1004.33 1004.54 1004.84 1005.21 1005.47 1005.84 1006.15 1006.45 1006.57 1006.84 1006.97 1007.15 1007.42 1007.65 1008.04 1008.30 1008.60 1008.71 1008.97 1009.22 1009.28 1009.72 1010.10 1010.42 1010.60 1010.80 1011.01 1011.16 1011.34 1011.71 1011.89 1012.04 1012.27 1012.62 1012.97
993.66 993.83 994.66 994.86 995.04 995.45 995.68 996.01 996.33 996.91 997.41 997.84 998.15 998.39 998.78 999.12 999.33 999.45 999.66 999.84 1000.04 1000.71 1001.03 1001.27 1001.47 1001.95 1002.59 1003.15 1003.77 1004.16 1004.54 1004.84 1005.09 1005.33 1005.62 1005.86 1006.03 1006.24 1006.41 1006.60 1006.86 1007.18 1007.45 1007.74 1008.16 1008.27 1008.39 1008.77 1008.98 1009.21 1009.62 1009.84 1010.07 1010.24 1010.47 1010.62 1010.86 1011.16 1011.42 1011.60 1011.83 1012.16 1012.45
994.42 994.45 994.59 994.78 994.98 995.33 995.30 995.83 996.45 996.68 997.09 997.47 997.72 997.98 998.36 998.77 999.07 999.18 999.48 999.83 999.84 999.98 1000.45 1000.83 1001.21 1001.60 1002.16 1002.65 1003.09 1003.60 1004.01 1004.30 1004.53 1004.71 1004.97 1005.18 1005.41 1005.59 1005.80 1006.12 1006.30 1006.59 1006.95 1007.10 1007.51 1007.89 1008.04 1008.16 1008.53 1008.65 1008.97 1009.30 1009.54 1009.80 1009.98 1010.21 1010.36 1010.66 1010.95 1011.21 1011.42 1011.77 1012.15
994.53 994.80 994.74 994.77 995.01 995.57 996.18 996.18 996.24 996.72 997.07 997.33 997.57 997.68 997.92 998.18 998.51 998.92 999.28 999.66 999.66 999.68 1000.01 1000.30 1000.80 1001.28 1001.72 1002.18 1002.62 1002.98 1003.33 1003.57 1003.78 1004.03 1004.18 1004.41 1004.78 1005.12 1005.33 1005.57 1005.78 1005.98 1006.22 1006.57 1007.12 1007.41 1007.54 1007.71 1007.97 1008.16 1008.41 1008.71 1008.98 1009.18 1009.45 1009.74 1009.98 1010.18 1010.42 1010.71 1010.98 1011.33 1011.66
995.01 995.39 995.66 995.71 995.83 995.80 996.22 996.68 996.74 996.77 996.98 997.21 997.34 997.72 997.86 998.01 998.27 998.54 998.84 998.98 999.22 999.30 999.45 999.65 1000.33 1000.89 1001.24 1001.68 1002.15 1002.36 1002.60 1003.01 1003.28 1003.45 1003.66 1003.95 1004.41 1004.78 1004.98 1005.15 1005.36 1005.57 1005.84 1006.12 1006.45 1006.68 1006.89 1007.04 1007.28 1007.77 1008.15 1008.22 1008.45 1008.74 1008.95 1009.22 1009.39 1009.48 1009.78 1010.24 1010.51 1010.62 1011.03
994.89 995.54 996.01 996.39 996.34 996.36 996.41 996.54 996.77 996.91 997.01 997.21 997.34 997.59 997.71 997.86 998.04 998.30 998.66 998.83 998.84 999.09 998.97 999.21 999.86 1000.45 1000.78 1001.18 1001.51 1001.83 1002.15 1002.51 1002.83 1003.16 1003.42 1003.80 1004.09 1004.33 1004.54 1004.80 1005.04 1005.28 1005.57 1005.74 1005.89 1006.12 1006.39 1006.66 1006.89 1007.10 1007.53 1007.97 1008.15 1008.30 1008.47 1008.57 1008.54 1008.66 1008.95 1009.21 1009.60 1009.98 1010.22
994.77 995.33 995.95 996.10 996.54 996.53 996.57 996.71 996.86 997.03 997.27 997.36 997.30 997.33 997.39 997.48 997.57 997.71 997.95 998.21 998.33 998.62 998.57 998.71 999.42 999.84 1000.22 1000.68 1000.98 1001.41 1001.71 1002.16 1002.53 1002.83 1003.30 1003.41 1003.62 1003.91 1004.24 1004.45 1004.60 1004.91 1005.16 1005.34 1005.51 1005.72 1005.95 1006.28 1006.65 1006.72 1006.80 1007.24 1007.59 1007.86 1007.91 1007.86 1007.80 1008.03 1008.39 1008.66 1008.86 1009.18 1009.65
994.95 995.30 995.33 995.91 996.22 996.30 996.84 996.92 997.10 997.21 997.28 997.18 997.12 997.12 997.18 997.34 997.39 997.53 997.68 997.68 997.92 997.98 998.04 998.36 998.77 999.34 999.78 1000.12 1000.57 1000.91 1001.30 1001.68 1002.07 1002.53 1002.77 1003.01 1003.33 1003.45 1003.65 1003.95 1004.27 1004.54 1004.74 1004.98 1005.24 1005.39 1005.51 1005.92 1006.10 1006.24 1006.33 1006.51 1006.89 1007.22 1007.27 1007.24 1007.16 1007.57 1007.95 1008.24 1008.51 1008.68 1008.95
995.39 994.91 995.36 995.80 995.95 996.45 996.59 996.57 996.60 996.78 996.74 996.71 996.84 996.91 996.78 996.78 997.10 997.41 997.33 997.48 997.48 997.48 997.77 998.09 998.39 998.95 999.42 999.65 1000.01 1000.42 1000.80 1001.22 1001.72 1002.07 1002.39 1002.60 1002.74 1003.01 1003.30 1003.65 1003.95 1004.21 1004.47 1004.71 1004.68 1004.97 1005.33 1005.41 1005.62 1005.86 1005.89 1006.03 1006.36 1006.60 1006.60 1006.68 1006.71 1007.21 1007.59 1007.91 1008.21 1008.39 1008.48
995.77 995.34 994.97 994.77 995.34 995.48 995.41 995.39 995.74 996.10 996.16 996.24 996.24 996.12 996.16 996.24 996.60 996.74 996.71 996.89 997.07 997.45 997.68 998.09 998.28 998.54 999.03 999.30 999.60 999.98 1000.36 1000.77 1001.24 1001.68 1001.92 1002.12 1002.47 1002.74 1003.07 1003.36 1003.65 1003.71 1003.84 1004.15 1004.42 1004.68 1004.80 1004.97 1005.22 1005.33 1005.57 1005.65 1005.78 1005.91 1005.92 1006.09 1006.22 1006.80 1007.22 1007.54 1007.89 1008.12 1008.33
996.04 995.71 995.41 995.27 995.54 995.15 995.53 995.51 995.78 995.92 995.95 995.77 995.54 995.59 995.91 996.22 996.21 996.41 996.68 996.77 997.18 997.27 997.66 997.91 998.18 998.42 998.71 999.03 999.24 999.62 1000.01 1000.45 1000.86 1001.33 1001.66 1001.91 1002.18 1002.51 1002.80 1003.03 1003.27 1003.57 1003.71 1003.83 1004.01 1004.28 1004.57 1004.68 1004.92 1004.97 1005.09 1005.22 1005.33 1005.59 1005.65 1005.42 1005.59 1006.16 1006.66 1007.09 1007.42 1007.71 1007.97
995.36 995.03 995.28 995.22 995.30 995.84 995.83 995.77 995.84 995.78 996.10 995.59 995.45 995.34 995.36 995.92 995.80 996.18 996.54 996.48 996.95 997.18 997.41 997.72 998.09 998.27 998.45 998.80 998.95 999.22 999.57 1000.04 1000.57 1000.97 1001.33 1001.62 1001.92 1002.27 1002.51 1002.68 1002.97 1003.28 1003.33 1003.51 1003.62 1003.71 1003.92 1004.21 1004.34 1004.68 1004.89 1004.92 1005.10 1005.27 1005.33 1004.89 1005.01 1005.48 1005.95 1006.39 1006.86 1007.22 1007.66
994.80 994.60 994.45 994.33 995.03 995.83 995.66 995.62 995.95 995.95 995.98 996.04 995.95 995.84 995.65 995.27 995.42 995.91 996.22 996.68 996.83 997.04 997.34 997.60 998.01 998.10 998.16 998.51 998.65 998.89 999.16 999.57 1000.12 1000.65 1000.98 1001.27 1001.66 1001.95 1002.15 1002.45 1002.71 1002.89 1002.97 1003.51 1003.53 1003.71 1003.84 1003.97 1004.07 1004.12 1004.39 1004.54 1004.66 1004.89 1004.84 1004.71 1004.66 1005.16 1005.53 1005.95 1006.39 1007.09 1007.28
995.22 995.03 995.01 995.24 995.15 995.39 995.78 996.09 996.03 995.95 996.16 996.30 996.22 995.98 995.72 995.47 995.41 995.66 996.16 996.54 996.72 997.10 997.41 997.59 997.74 997.71 997.95 998.21 998.33 998.54 998.83 999.21 999.77 1000.34 1000.66 1000.95 1001.30 1001.51 1001.71 1001.91 1002.10 1002.42 1002.51 1003.09 1003.34 1003.48 1003.42 1003.48 1003.72 1003.72 1003.80 1004.04 1004.21 1004.21 1004.59 1004.51 1004.42 1004.91 1005.34 1005.72 1006.10 1006.33 1006.68
996.07 996.07 996.03 996.27 996.30 996.48 996.53 996.59 996.60 996.53 996.39 996.51 996.72 996.10 995.74 995.72 995.80 995.95 996.16 996.28 996.54 996.83 997.27 997.39 997.36 997.45 997.65 997.83 997.95 998.18 998.48 998.86 999.34 999.84 1000.22 1000.59 1000.86 1001.07 1001.39 1001.57 1001.80 1001.97 1002.16 1002.45 1002.72 1002.95 1002.95 1003.10 1003.36 1003.51 1003.47 1003.47 1003.62 1003.77 1004.12 1004.18 1004.22 1004.54 1004.97 1005.51 1005.89 1006.16 1006.10
997.01 996.77 996.78 996.54 996.60 996.45 996.47 996.42 996.59 996.80 996.68 996.53 996.54 995.83 995.62 995.77 996.01 996.18 996.09 996.10 996.21 996.71 996.97 996.91 996.89 996.89 997.04 997.30 997.59 997.86 998.22 998.54 999.10 999.48 999.84 1000.22 1000.47 1000.59 1000.83 1001.04 1001.39 1001.66 1001.97 1002.18 1002.34 1002.65 1002.72 1002.78 1002.95 1003.24 1003.28 1003.21 1003.42 1003.48 1003.59 1003.89 1003.89 1004.21 1004.71 1005.18 1005.62 1005.91 1005.91
997.09 996.97 997.04 997.01 997.09 996.74 996.60 996.57 996.98 997.28 997.09 996.66 996.36 996.12 995.89 995.78 996.16 996.41 996.18 995.98 996.21 996.51 996.36 996.28 996.36 996.59 996.84 997.07 997.34 997.71 998.04 998.27 998.71 999.22 999.47 999.66 999.98 1000.15 1000.41 1000.54 1000.95 1001.22 1001.59 1001.92 1002.03 1002.28 1002.57 1002.68 1002.72 1002.86 1002.98 1002.89 1002.89 1003.01 1003.07 1003.18 1003.57 1003.72 1004.18 1004.62 1005.04 1005.54 1005.86
997.18 997.30 996.77 996.71 996.51 996.80 997.01 996.92 997.28 997.12 996.74 996.16 995.89 995.89 995.89 995.98 996.36 996.36 996.22 996.16 996.30 996.07 995.68 995.84 996.12 996.39 996.71 997.04 997.30 997.59 997.91 998.15 998.34 998.66 999.04 999.27 999.60 1000.04 1000.28 1000.22 1000.42 1000.77 1001.10 1001.39 1001.74 1002.16 1002.47 1002.57 1002.66 1002.78 1002.77 1002.66 1002.54 1002.59 1002.71 1002.54 1002.77 1003.04 1003.60 1004.04 1004.68 1005.15 1005.34
997.83 997.92 997.78 997.28 996.92 996.91 996.98 997.48 997.65 997.34 996.97 996.22 995.97 995.62 995.62 995.86 996.41 996.47 996.30 996.47 996.10 995.53 995.53 995.71 995.95 996.30 996.65 997.01 997.30 997.53 997.74 997.97 998.24 998.54 998.68 999.07 999.28 999.78 1000.22 1000.18 1000.41 1000.62 1000.84 1001.27 1001.65 1002.01 1002.33 1002.47 1002.60 1002.80 1002.91 1002.84 1002.65 1002.51 1002.53 1002.45 1002.51 1002.62 1003.16 1003.72 1004.12 1004.51 1004.95
997.80 997.91 997.60 997.21 997.04 997.41 997.28 997.42 997.53 997.34 997.15 996.84 996.53 996.22 995.80 995.86 996.45 996.51 996.53 996.53 995.66 995.53 995.53 995.68 995.91 996.16 996.65 997.01 997.24 997.45 997.62 997.80 998.01 998.24 998.51 998.84 999.18 999.59 1000.04 1000.27 1000.36 1000.57 1000.83 1001.09 1001.51 1001.92 1002.27 1002.36 1002.51 1002.74 1003.04 1003.21 1003.10 1002.80 1002.54 1002.42 1002.39 1002.57 1002.84 1003.48 1004.15 1004.51 1004.65
998.39 998.34 998.09 997.86 997.72 997.60 997.59 997.62 997.92 997.74 997.62 997.27 996.98 996.68 996.33 995.86 996.39 996.62 997.04 996.74 995.92 995.84 995.84 995.91 995.98 996.33 996.72 997.01 997.21 997.45 997.54 997.71 997.95 998.21 998.47 998.68 999.01 999.66 999.98 1000.27 1000.36 1000.86 1000.83 1001.04 1001.45 1001.78 1002.16 1002.33 1002.41 1002.83 1003.04 1003.18 1003.33 1003.10 1002.80 1002.54 1002.48 1002.51 1002.78 1003.09 1003.57 1003.95 1004.22
998.36 998.39 998.07 997.95 998.15 998.28 998.07 997.66 997.68 997.86 997.86 997.53 997.16 996.89 996.65 996.51 996.30 996.97 997.16 996.42 996.28 996.10 995.91 995.98 996.33 996.66 996.92 997.07 997.24 997.42 997.51 997.86 998.04 998.21 998.41 998.62 998.80 999.24 999.54 999.97 1000.28 1000.71 1000.92 1001.10 1001.47 1001.71 1002.04 1002.27 1002.36 1002.60 1002.84 1003.16 1003.10 1003.09 1002.92 1002.65 1002.60 1002.57 1002.78 1003.59 1004.18 1004.68 1005.04
998.78 998.78 998.83 998.83 998.59 998.47 998.53 998.28 998.12 998.45 998.57 998.60 998.09 997.77 997.34 996.89 996.62 996.89 996.80 996.77 996.48 996.24 996.28 996.45 996.71 997.03 997.16 997.36 997.47 997.53 997.60 997.95 998.15 998.39 998.51 998.71 998.84 999.04 999.36 999.59 999.97 1000.34 1000.77 1001.09 1001.36 1001.60 1001.84 1002.07 1002.28 1002.42 1002.53 1002.72 1002.77 1002.80 1002.72 1002.78 1002.60 1002.95 1003.71 1004.07 1004.16 1004.36 1004.51
999.42 999.21 998.86 998.66 998.68 998.65 998.68 998.57 998.57 998.74 998.80 998.91 998.47 998.10 997.86 997.66 997.59 997.28 997.09 996.74 996.45 996.36 996.60 996.91 997.04 997.28 997.41 997.47 997.53 997.74 997.83 998.03 998.09 998.34 998.65 998.74 998.83 999.01 999.18 999.41 999.60 1000.01 1000.47 1000.74 1000.92 1001.28 1001.54 1001.72 1001.92 1002.18 1002.27 1002.33 1002.41 1002.59 1002.78 1002.97 1003.51 1004.45 1004.65 1004.66 1004.66 1004.51 1004.47
999.53 999.41 999.24 999.24 999.12 998.97 999.24 998.98 998.80 998.84 999.01 999.01 998.65 998.36 998.22 998.01 997.68 997.42 997.30 997.07 996.65 996.71 997.03 997.22 997.30 997.39 997.48 997.51 997.62 997.92 997.89 998.03 998.12 998.34 998.57 999.41 1000.09 1000.36 1000.57 1000.28 999.77 1000.47 1000.97 1001.09 1000.89 1000.78 1001.01 1001.18 1001.51 1001.71 1001.72 1002.36 1002.97 1003.18 1003.53 1003.57 1004.15 1004.77 1004.95 1005.15 1005.24 1005.18 1005.28
999.60 999.34 999.27 999.07 999.07 999.03 999.12 999.07 999.07 999.18 999.24 999.15 998.71 998.53 998.41 998.28 997.97 997.60 997.39 997.24 997.09 997.15 997.57 997.77 997.92 998.04 998.21 998.12 998.18 998.15 998.24 998.36 998.53 998.60 998.84 999.47 1000.01 1000.48 1000.80 1000.83 1000.59 1000.33 1000.80 1001.59 1001.33 1001.10 1001.10 1001.12 1001.84 1001.98 1001.92 1002.60 1003.07 1003.07 1003.48 1004.07 1004.34 1004.65 1005.04 1005.18 1005.27 1005.47 1005.45
999.92 999.68 999.48 999.21 999.41 999.41 999.36 999.30 999.18 999.24 999.41 999.28 998.97 998.83 998.65 998.47 998.21 998.01 997.74 997.59 997.51 997.51 997.66 997.83 998.21 998.45 998.71 998.78 998.86 998.78 998.78 998.95 999.10 999.03 999.30 999.68 1000.07 1000.39 1001.04 1001.41 1001.48 1001.57 1001.42 1001.33 1001.59 1001.62 1001.78 1001.92 1001.98 1002.07 1002.27 1002.51 1003.16 1003.42 1003.54 1003.80 1004.10 1004.28 1004.51 1004.89 1005.22 1005.33 1005.39
999.60 999.45 999.33 999.24 999.39 999.54 999.54 999.47 999.39 999.51 999.60 999.30 999.15 999.01 998.80 998.74 998.54 998.33 998.01 997.74 997.72 997.77 997.97 998.10 998.41 998.84 998.98 998.97 998.98 998.92 999.01 999.12 999.33 999.51 999.66 999.84 1000.07 1000.41 1000.92 1001.48 1002.04 1002.28 1002.30 1002.41 1002.15 1001.98 1002.12 1002.18 1002.36 1002.60 1002.84 1003.03 1003.22 1003.48 1003.74 1003.83 1003.97 1004.21 1004.30 1004.30 1004.33 1004.60 1005.01
Wind_Speed
19 20 19 16 16 17 17 16 16 17 18 19 20 22 22 20 18 17 18 20 22 22 21 20 20 18 19 17 17 15 14 13 11 12 11 10 9 9 9 9 10 9 8 9 9 9 8 8 9 9 9 10 9 8 8 8 7 7 6 5 5 7 7
20 20 20 18 17 18 17 17 18 17 18 19 19 20 20 20 18 18 19 20 22 22 22 21 21 19 19 17 16 16 16 15 14 11 11 10 9 9 9 9 10 10 9 8 8 8 8 9 9 10 10 10 10 9 9 9 8 7 7 6 6 6 7
20 19 22 20 19 18 17 16 16 19 20 21 22 21 21 21 20 21 19 20 21 20 20 20 20 20 19 18 17 17 17 15 14 15 15 14 14 15 11 10 9 9 10 9 8 8 9 9 9 8 10 10 11 10 8 9 9 9 7 7 7 6 7
19 20 22 23 21 22 23 20 20 21 22 23 24 26 23 21 19 17 18 20 22 21 21 20 20 19 18 18 18 17 18 17 17 16 16 15 14 13 11 10 9 9 9 11 9 8 9 9 10 9 9 9 10 10 9 9 9 9 8 8 8 8 7
19 18 17 21 21 21 22 22 23 22 24 26 25 22 21 19 19 17 17 19 21 23 23 23 20 19 16 17 15 15 17 19 17 15 15 14 13 12 12 13 12 12 11 10 10 9 8 9 10 10 9 8 10 10 10 10 10 10 9 8 8 8 8
19 16 13 19 18 17 18 21 24 26 25 25 25 24 22 23 22 23 21 20 20 20 19 19 19 17 16 17 16 15 16 16 15 15 14 14 13 13 14 14 13 13 13 11 10 10 10 8 10 10 11 11 10 11 11 11 10 11 10 9 8 8 8
18 17 14 17 18 19 21 20 23 24 23 23 22 20 21 22 24 23 21 21 22 22 22 22 21 20 18 17 17 17 18 17 16 16 15 14 14 13 13 12 12 11 11 9 10 10 11 11 10 10 11 12 11 11 11 11 11 10 10 9 10 9 9
19 17 16 13 18 20 19 17 18 21 19 18 19 21 24 22 21 22 23 22 22 22 21 22 21 18 18 17 17 19 18 18 17 17 15 16 15 15 14 13 12 11 11 12 11 11 12 12 11 9 11 12 11 11 11 11 11 12 11 11 11 11 9
19 18 17 17 18 18 16 15 16 17 19 19 21 21 22 21 21 22 23 22 21 22 22 22 21 18 16 17 17 18 17 17 17 17 17 19 16 18 17 15 13 12 12 12 12 11 11 11 12 11 11 11 11 12 11 11 12 11 11 12 12 13 11
20 18 16 16 15 18 14 16 14 13 17 16 15 16 20 20 19 19 20 21 21 24 24 23 20 19 17 17 17 18 18 17 16 20 20 19 16 18 18 16 14 13 13 13 12 11 11 11 12 11 11 12 11 12 12 12 12 13 13 13 13 13 12
17 18 15 15 12 16 16 15 15 14 17 17 16 17 17 18 18 20 20 21 21 21 22 20 19 20 19 19 20 19 17 18 18 19 19 19 17 19 18 17 16 13 15 14 14 13 11 12 11 12 12 13 13 12 13 13 12 13 13 12 13 14 13
17 20 18 15 11 13 17 13 14 14 16 16 16 16 15 16 17 19 18 20 19 19 19 20 19 19 19 19 20 17 18 17 18 19 20 19 18 19 18 17 16 15 14 15 15 14 13 13 12 12 13 13 13 12 12 12 12 13 13 14 13 13 13
9 7 13 14 11 12 14 14 15 15 16 14 17 16 14 15 17 17 14 16 18 16 17 16 16 16 18 19 20 17 18 18 18 17 18 17 16 16 16 16 17 17 16 15 16 16 15 14 14 12 13 13 13 14 13 13 13 12 13 13 12 12 13
12 10 7 5 4 7 9 10 12 14 14 15 16 14 13 15 15 14 12 15 15 16 17 16 16 15 16 16 17 16 18 17 17 18 17 15 15 14 15 15 15 14 13 13 15 16 15 15 14 13 13 13 14 13 12 13 13 13 13 13 13 12 13
13 11 8 7 5 5 8 9 9 11 12 12 14 14 13 13 14 12 11 13 14 16 16 14 15 15 16 16 16 15 16 15 15 15 15 15 14 15 15 14 13 13 13 12 13 13 15 14 14 13 14 13 14 14 13 13 14 12 13 14 15 13 14
12 12 11 10 7 7 4 6 7 8 8 9 11 12 13 11 11 13 14 12 14 14 13 13 15 15 16 16 16 14 14 15 14 14 14 14 14 15 15 14 13 13 13 13 13 12 12 12 12 13 14 14 14 14 13 13 12 15 21 19 15 15 13
12 17 14 9 9 7 7 6 6 7 8 8 9 11 11 10 11 12 17 14 16 14 13 13 13 15 16 15 14 13 14 14 14 14 14 14 14 13 14 15 13 13 13 13 13 12 12 12 13 14 13 15 15 16 14 13 13 20 21 22 23 17 14
2 12 17 16 12 10 9 10 9 10 11 12 12 9 9 8 9 11 13 13 14 15 16 14 13 16 15 14 13 14 14 14 14 14 15 14 14 14 14 14 14 13 13 13 13 12 11 13 14 13 13 12 15 16 15 14 16 20 21 22 23 20 15
5 3 11 13 12 12 12 12 13 12 13 13 11 10 11 9 10 10 10 10 12 11 14 15 12 13 14 15 14 15 14 13 14 15 14 15 14 13 13 14 14 14 13 14 13 11 13 13 14 14 14 13 14 16 16 14 16 19 22 23 23 23 19
3 3 2 4 9 14 10 5 12 11 11 8 11 13 10 10 11 9 9 9 9 12 11 11 12 11 14 14 14 14 14 14 14 15 15 14 13 12 13 13 14 14 12 11 11 13 14 14 14 14 14 14 13 13 14 15 15 19 21 22 23 23 20
4 6 5 3 4 4 7 10 7 6 5 7 9 8 11 10 10 8 9 8 9 10 11 10 11 10 12 14 13 13 14 14 14 14 13 13 13 13 13 13 12 12 11 12 13 13 13 14 13 13 13 14 14 11 12 14 17 19 22 23 24 24 19
6 7 6 4 1 8 8 9 6 6 6 4 2 2 5 10 11 12 10 10 9 9 11 10 11 11 10 13 14 14 13 13 14 13 13 13 13 14 14 13 13 13 12 11 11 10 10 10 11 12 12 12 13 14 14 14 17 20 22 24 24 25 13
6 8 7 1 10 10 9 6 5 5 3 1 2 4 3 4 9 9 9 10 11 9 10 11 12 12 11 12 13 14 14 14 14 14 13 13 14 15 14 13 13 12 10 11 11 11 11 11 12 11 12 13 13 15 14 14 14 18 21 23 25 18 9
19 18 14 13 11 12 10 9 6 5 3 3 3 4 4 5 3 6 8 9 10 10 10 12 13 12 11 11 12 13 13 13 13 13 13 13 14 14 13 12 11 12 11 12 12 13 13 12 11 11 12 14 14 14 14 13 12 16 18 22 23 21 13
13 12 12 13 12 11 8 5 3 5 5 6 7 5 4 5 5 5 6 9 11 11 11 12 12 12 12 10 10 12 12 12 12 13 14 14 13 12 12 12 11 10 9 11 11 12 10 10 10 11 11 14 15 15 16 14 12 15 18 21 21 19 13
10 10 9 10 11 7 4 2 1 3 4 3 4 4 3 5 5 6 5 7 10 12 12 12 10 9 9 9 10 11 11 11 11 12 12 13 12 11 11 10 11 12 12 11 10 10 11 10 10 12 12 12 12 13 14 13 12 11 18 19 21 23 16
10 9 9 10 8 7 5 4 5 4 4 5 5 6 4 3 5 6 6 5 7 10 10 8 7 8 8 8 9 11 12 11 11 12 12 11 11 11 11 11 11 11 11 12 11 10 10 11 11 11 10 11 12 12 12 11 13 11 19 19 21 22 19
9 9 7 9 5 7 5 4 6 5 5 5 7 7 6 4 4 4 4 4 6 6 6 6 7 7 7 8 9 10 11 11 10 11 11 10 10 10 10 9 10 10 11 11 9 10 10 9 8 8 9 9 9 9 9 10 14 11 16 20 21 22 27
8 8 7 6 7 10 8 5 5 5 5 6 10 5 3 5 5 4 4 4 4 4 4 5 6 7 7 7 9 9 9 10 11 10 10 9 10 10 9 9 9 8 8 9 9 9 9 9 8 8 8 6 6 6 6 6 7 10 10 17 21 23 24
8 9 9 9 8 9 10 7 4 5 5 6 7 8 5 3 3 3 3 3 2 2 2 4 4 6 7 7 8 8 8 9 10 9 8 8 8 9 8 8 7 7 7 8 8 7 7 7 7 7 7 7 6 6 4 3 4 6 12 12 18 18 22
8 9 8 8 7 7 6 6 6 4 5 6 7 6 7 2 2 2 5 6 4 0 4 4 4 5 6 6 7 7 7 7 7 8 7 7 7 8 8 8 7 7 6 6 7 6 6 6 6 6 5 5 5 4 4 4 4 4 9 15 18 20 21
9 8 8 8 9 9 8 7 3 6 4 2 3 3 4 7 4 5 6 2 3 3 2 3 3 4 4 5 5 6 6 8 9 7 7 6 6 7 7 7 8 7 5 5 5 5 6 5 5 5 6 6 6 6 5 6 3 5 2 2 2 3 7
7 7 7 7 8 7 7 9 4 5 7 8 9 10 10 6 4 5 3 3 2 2 2 2 3 4 4 4 5 5 6 7 8 8 7 6 6 6 6 6 8 7 7 6 7 7 6 6 6 6 6 5 4 4 6 5 5 3 9 5 4 4 6
9 8 7 6 5 6 7 7 3 3 3 4 5 5 4 5 7 7 8 3 5 2 2 2 2 3 4 5 5 6 5 5 10 9 8 7 5 6 8 8 8 8 9 8 8 8 8 8 7 7 6 5 2 1 2 4 8 8 5 6 5 5 4
6 6 6 5 5 5 6 6 3 1 3 3 3 3 3 5 6 6 5 6 5 3 2 3 5 4 5 5 4 5 4 4 4 6 6 8 9 9 7 5 4 9 8 8 5 6 3 5 7 5 3 7 6 4 4 5 7 6 4 5 3 3 2
7 6 5 4 3 3 3 4 4 4 4 3 2 2 3 4 2 3 5 5 4 4 5 6 6 7 6 5 5 4 4 4 4 5 7 9 8 9 9 13 14 8 9 7 11 16 15 11 6 5 5 8 6 5 6 6 4 4 9 8 5 4 3
7 6 5 3 2 2 2 1 3 2 2 3 3 4 4 3 3 3 5 5 6 5 5 4 5 6 6 7 5 5 5 6 6 5 7 8 8 9 10 8 11 16 15 13 11 14 16 16 17 19 15 9 7 7 10 8 5 7 7 4 4 4 4
6 4 3 3 2 2 3 3 3 3 3 3 2 2 3 3 3 3 3 3 4 5 5 5 6 6 5 5 5 5 5 5 5 6 6 6 8 8 9 9 10 8 10 11 11 14 15 16 15 14 14 13 9 5 3 2 2 6 6 7 7 4 1
Wind_Direction
179 168 177 176 175 183 187 192 194 195 197 187 188 192 189 189 187 181 182 180 181 179 181 178 180 181 184 185 186 187 189 190 189 193 197 201 200 201 193 189 193 196 197 195 193 198 190 187 187 193 184 185 192 196 188 186 187 187 198 191 173 168 180
185 169 171 174 176 184 187 191 193 202 198 188 187 192 193 190 187 184 183 182 183 182 180 180 180 183 184 185 186 186 189 190 190 191 194 198 200 203 200 191 192 194 198 196 191 192 189 191 190 187 186 183 191 194 192 185 187 188 188 186 185 175 178
186 181 167 177 177 182 188 191 190 197 198 192 189 193 194 192 189 185 181 181 183 182 182 184 184 183 184 184 184 187 189 189 191 191 194 197 199 203 200 198 193 195 198 198 194 186 190 191 194 190 184 183 189 192 194 187 186 189 187 183 185 188 182
181 184 171 172 175 179 186 190 196 202 198 193 192 194 194 191 189 183 182 181 180 180 182 184 183 186 185 183 185 187 188 191 193 194 196 197 198 199 199 199 199 198 195 200 200 194 192 191 189 197 189 183 185 189 192 192 186 190 191 185 186 189 191
181 185 174 167 174 176 183 185 189 191 193 195 193 193 193 185 184 184 183 185 183 183 183 183 184 186 185 184 186 187 189 191 194 195 196 196 195 194 199 201 199 203 201 196 197 197 198 185 190 190 195 190 184 184 190 191 187 187 192 188 187 190 191
181 182 186 167 174 177 183 185 186 189 193 194 193 191 193 188 187 189 188 185 187 186 184 184 185 182 183 186 186 187 190 193 194 193 194 194 192 192 198 201 201 201 202 198 193 196 197 194 190 188 192 194 192 190 190 190 190 187 190 189 190 194 192
176 184 191 177 176 173 177 182 187 190 192 194 191 189 190 192 191 191 188 188 187 186 186 186 188 185 185 186 189 185 188 190 191 194 196 197 195 197 198 200 202 199 202 195 199 194 196 200 197 190 190 196 198 197 192 191 190 186 188 192 190 196 196
174 182 192 188 165 174 178 178 186 189 190 191 191 188 192 193 192 190 191 191 189 189 189 188 189 189 186 187 188 189 188 190 191 193 195 197 196 198 198 197 199 200 195 199 199 195 197 197 199 196 191 194 193 197 194 189 189 187 186 192 195 197 195
173 178 182 192 173 174 175 177 187 186 184 191 192 189 190 192 193 194 193 190 190 190 191 190 190 190 188 190 190 189 188 188 191 191 194 198 197 200 201 200 199 197 199 201 201 198 199 195 196 196 196 196 194 193 196 189 190 191 189 192 195 198 199
163 172 174 196 192 168 170 179 176 176 178 187 192 187 189 194 194 193 194 195 192 193 191 190 190 189 188 191 193 190 188 190 191 192 193 196 196 199 201 201 201 197 201 203 206 200 199 198 194 193 197 198 197 194 195 193 190 193 194 192 195 199 203
153 162 168 187 197 162 166 171 172 175 176 181 190 190 188 191 193 193 195 196 196 195 191 190 190 189 187 189 193 193 192 191 191 193 194 196 197 200 201 201 201 198 200 203 205 205 194 198 196 193 195 200 199 198 195 196 193 194 198 197 195 199 202
156 160 168 177 186 155 164 170 170 175 173 179 186 192 186 189 193 197 196 198 197 193 193 192 192 190 186 187 191 192 192 193 195 196 196 196 198 200 201 201 202 199 196 200 204 203 200 194 197 196 195 199 200 201 198 196 196 196 199 202 199 198 203
81 107 156 167 177 170 176 167 175 173 171 174 184 191 186 186 194 198 194 195 198 195 194 190 192 189 189 189 193 190 192 194 195 195 196 195 198 200 199 203 204 203 201 198 204 205 206 199 196 198 197 196 199 202 201 198 198 198 198 202 203 199 201
98 95 105 100 124 103 144 171 160 159 165 174 182 188 189 188 193 196 192 192 197 198 195 193 192 190 188 189 193 193 192 194 195 198 197 195 194 198 200 202 203 202 200 194 200 206 207 208 199 194 197 196 199 201 200 200 200 200 198 199 201 201 201
114 113 112 124 82 83 117 136 149 157 162 171 180 187 191 190 191 190 191 192 193 202 198 191 189 190 190 190 194 193 190 191 194 199 198 195 193 197 199 201 202 201 200 198 197 203 208 210 209 197 197 199 198 199 200 202 202 199 198 197 200 203 203
136 127 126 133 139 132 102 116 133 150 157 172 183 184 190 191 186 186 191 191 192 198 202 191 187 190 193 193 193 190 187 190 194 197 198 197 195 195 197 199 200 201 202 203 201 197 200 206 208 207 197 198 199 200 203 205 204 200 195 194 197 201 205
154 142 135 139 142 151 144 148 145 151 168 184 192 189 192 190 188 185 195 194 197 194 199 195 186 189 194 194 188 187 187 188 193 193 197 200 198 194 196 199 200 201 202 204 203 200 194 198 203 212 207 199 201 202 205 207 207 197 194 195 195 197 201
57 151 154 150 151 151 157 164 171 175 181 187 194 198 194 192 188 189 199 190 196 196 199 206 194 190 191 189 184 188 188 189 190 193 197 197 198 196 196 197 201 203 202 202 202 201 196 196 202 207 212 202 203 208 208 211 207 193 194 194 194 196 199
340 7 128 154 152 144 165 177 180 183 185 188 194 197 202 197 194 196 199 193 192 195 200 204 200 188 189 188 186 187 188 187 190 194 195 197 198 196 194 196 201 203 202 203 202 199 203 201 199 204 209 212 203 207 209 214 204 192 193 195 196 198 199
284 280 313 154 134 164 175 188 165 176 180 176 186 194 198 200 203 199 195 197 187 195 203 199 207 191 188 188 189 186 186 188 190 195 197 195 195 195 197 198 202 202 203 202 199 203 207 204 204 204 207 212 213 209 211 214 202 190 192 195 196 199 201
232 275 288 358 351 336 80 102 112 118 129 170 190 180 182 192 197 191 194 196 195 194 197 201 203 200 186 189 188 184 186 188 190 194 195 193 192 194 198 200 201 199 200 201 203 204 206 206 207 207 207 211 216 219 217 218 200 186 190 194 196 199 201
227 223 205 224 74 79 53 57 52 56 56 51 75 235 182 184 194 201 199 194 200 195 196 198 201 205 189 188 188 188 185 186 189 190 191 191 191 195 199 199 197 197 198 204 208 209 209 211 215 212 212 212 215 222 227 225 201 188 189 192 195 196 198
294 231 232 174 92 80 71 55 45 28 3 328 294 276 250 206 189 197 193 191 199 198 195 197 202 205 198 189 189 188 185 185 188 189 190 190 192 197 198 196 196 197 193 203 209 210 209 211 213 215 214 214 214 219 227 230 211 190 192 191 193 191 199
31 25 53 74 81 76 67 51 26 38 357 317 274 257 291 298 258 186 187 187 190 196 198 200 206 204 200 194 189 187 184 183 186 188 190 192 195 196 197 195 197 199 192 200 204 210 213 211 213 215 216 218 219 217 224 229 211 187 194 195 191 190 194
37 31 41 53 54 56 46 38 13 304 284 270 269 257 235 244 278 273 195 184 184 192 201 205 206 201 201 194 184 185 185 185 189 191 191 195 195 191 190 191 192 194 191 202 205 213 211 209 212 214 215 221 224 221 223 229 218 190 192 194 195 196 204
35 35 31 38 40 26 21 15 315 349 324 334 353 319 232 215 240 255 240 189 183 192 203 207 203 199 196 190 180 182 185 189 190 191 194 194 192 192 191 185 190 195 195 200 205 207 212 214 214 215 218 219 223 227 223 225 227 191 195 191 197 198 202
24 13 15 23 35 35 27 28 49 348 326 308 287 279 293 264 223 238 250 211 193 200 203 199 190 190 189 189 185 183 187 189 189 191 195 197 195 191 191 191 193 194 194 201 203 205 207 215 217 220 220 220 220 228 225 223 225 195 187 195 195 197 201
5 8 353 0 3 49 24 39 20 341 316 279 245 229 243 244 244 242 247 227 208 199 183 178 178 178 182 185 187 186 190 194 189 189 196 196 192 192 191 189 193 194 193 200 200 202 203 205 216 220 223 221 222 228 228 222 211 210 189 190 192 194 201
5 3 3 344 32 31 17 24 348 345 336 351 0 345 229 227 221 229 242 235 208 186 179 173 174 172 178 181 187 192 192 190 188 185 195 196 191 190 189 186 191 193 193 193 199 202 199 202 206 214 224 229 225 224 223 228 222 209 185 195 192 195 199
21 9 7 5 17 23 351 18 11 354 23 353 354 345 328 250 195 212 200 202 172 197 183 182 171 168 174 179 184 190 192 187 186 182 192 192 183 183 183 186 189 191 192 190 197 196 198 202 201 211 219 227 233 237 241 225 240 180 173 180 195 200 203
6 357 348 354 3 14 343 358 13 350 7 12 359 356 338 13 138 166 82 32 1 176 195 190 174 146 165 171 180 183 192 183 181 178 183 181 173 173 176 184 184 193 188 186 190 197 208 197 197 204 217 231 237 238 226 224 228 238 176 179 187 198 205
356 346 334 350 19 15 350 329 12 4 1 45 20 352 20 8 13 95 62 44 31 359 45 97 101 122 144 164 173 180 186 187 186 167 171 169 170 172 175 186 181 187 179 185 187 200 206 204 203 204 210 212 223 221 223 228 218 243 142 126 118 237 261
338 349 337 335 356 347 335 322 347 30 24 16 16 11 9 5 39 52 64 32 315 234 125 157 145 146 161 164 169 177 189 183 184 178 176 176 180 174 175 183 183 184 178 182 206 205 197 205 205 212 218 216 208 209 218 217 207 56 56 65 126 169 170
333 337 334 339 344 334 324 308 316 6 3 15 357 12 10 23 25 21 359 292 221 161 149 158 143 158 173 166 168 164 183 171 180 175 175 179 188 187 182 182 190 189 178 189 202 202 191 195 197 197 209 215 212 280 52 50 64 57 43 37 23 18 17
315 316 317 325 346 341 347 329 326 18 23 34 12 8 14 22 9 4 15 356 17 69 159 128 158 173 171 163 159 146 146 151 155 157 160 96 80 61 35 1 71 76 68 41 22 51 40 90 73 59 71 78 66 57 59 47 56 48 75 86 89 79 59
308 294 288 297 303 317 327 343 7 45 53 39 3 53 60 54 28 358 24 16 29 67 82 81 70 71 67 72 62 87 91 72 74 47 81 101 96 85 63 41 39 60 103 83 63 69 69 79 78 58 70 87 64 44 59 60 59 96 98 103 109 122 177
302 297 286 291 265 256 278 344 45 48 65 51 21 42 42 49 73 47 31 40 30 31 51 61 71 73 66 57 58 59 76 71 50 60 100 106 100 91 91 82 47 38 55 86 93 91 88 82 78 66 57 71 95 84 95 99 86 39 7 39 125 160 188
301 294 272 227 209 178 162 178 163 142 115 98 83 104 97 102 85 78 78 55 61 55 54 55 58 78 86 95 101 67 66 73 90 90 75 100 110 106 107 104 99 76 33 39 85 100 97 97 95 95 91 84 88 93 97 122 48 360 352 345 350 358 68